Track ONEWEB-0359 now! 10-day predictions ONEWEB-0359 is classified as:
1 49285U 21090G 22144.51923460 .00003073 00000-0 32701-3 0 9992 2 49285 87.5261 218.7116 0002640 124.9405 235.2070 14.88656677 33162